Location: Home
(42.5358°N, 72.7383°W)
Time: 09:46:23
(UTC-05:00)

Vanguard 2 - Pass Details

Date: 29 November 2021
Orbit: 553 x 2936 km, 32.9° (Epoch: 21 January)

Event Time Altitude Azimuth Distance (km) Brightness Sun altitude
Rises 15:46:16 0° 249° (WSW) 3,526 12.9 4.3°
Reaches altitude 10° 15:48:30 10° 242° (WSW) 2,808 12.9 4.0°
Maximum altitude 15:55:05 45° 172° (S) 1,841 9.8 3.0°
Drops below altitude 10° 16:05:48 10° 105° (ESE) 4,530 11.1 1.3°
Sets 16:10:26 0° 100° (E) 5,907 11.6 0.6°
